{"data":{"norad_id":47242,"intl_designator":"2020-097A","name":"IPM 2 & BREEZE-M R/B","alt_names":[],"object_type":"PAYLOAD","status":"ACTIVE","operator":null,"country":"CIS","launch_date":"2020-12-14","launch_site_code":"PLMSC","launch_vehicle":null,"mission":null,"orbit_class":"UNKNOWN","rcs_meters":null,"size_class":null,"mass_kg":null,"dimensions":null,"purposes":[],"wikipedia_slug":null,"has_3d_model":false,"image_url":null,"decayed_at":null,"tle_current":{"epoch":"2026-05-24T08:31:19.402752Z","epoch_age_seconds":124131,"freshness":"FRESH","line1":"1 47242U 20097A   26144.35508568 -.00000064  00000+0  00000+0 0  9993","line2":"2 47242   5.2984  77.0042 0083485 278.7539  80.1219  0.95297320 19040","mean_motion":0.9529732,"eccentricity":0.0083485,"inclination_deg":5.2984,"raan_deg":77.0042,"arg_perigee_deg":278.7539,"mean_anomaly_deg":80.1219,"bstar":0,"rev_number":1904,"period_min":1511.0603320219,"perigee_km":36877.27532643,"apogee_km":37605.591291882,"semimajor_km":43619.570309156,"source":"CELESTRAK","updated_at":"2026-05-25T13:37:56.400393Z"}}}